Regional Weather Roundup
Issued by NWS

Home | Current Version | Previous Version | Graphics & Text | Print | Product List | Glossary On
Versions: 1 2 3 4 5 6 7 8 9 10 11 12 13 14 15 16 17 18 19 20 21 22 23 24 25 26 27 28 29 30 31 32 33 34 35 36 37 38 39 40 41 42 43 44 45 46 47 48 49 50
000
ASUS43 KMPX 201910
RWRMN
WEATHER ROUNDUP FOR MINNESOTA
NATIONAL WEATHER SERVICE TWIN CITIES/CHANHASSEN MN
200 PM CDT FRI OCT 20 2017


NOTE: "FAIR" INDICATES FEW OR NO CLOUDS BELOW 12,000 FEET WITH NO
SIGNIFICANT WEATHER AND/OR OBSTRUCTIONS TO VISIBILITY. N/A MEANS
CURRENT SKY AND/OR WEATHER CONDITIONS ARE NOT AVAILABLE.

MNZ060>063-068>070-202000-
   Twin Cities Metro

CITY           SKY/WX    TMP DP  RH WIND       PRES   REMARKS
TWIN CITIES    SUNNY     76  51  41 S21G30    29.79F
ST PAUL        SUNNY     75  52  44 S20G29    29.80F
CRYSTAL        SUNNY     76  48  37 S18G29    29.77F
BLAINE         PTSUNNY   77  50  38 S17G30    29.78F
LAKEVILLE      SUNNY     73  52  46 S14G24    29.80F
EDEN PRAIRIE   SUNNY     75  50  41 S21G31    29.77F
SOUTH ST PAUL  SUNNY     76  49  37 S17       29.80F
LAKE ELMO      FAIR      75  50  41 S15G26    29.82F
$$
MNZ001>005-007-008-013>017-022>024-027-028-202000-
   Northwest Minnesota

CITY           SKY/WX    TMP DP  RH WIND       PRES   REMARKS
BEMIDJI        SUNNY     75  49  39 S17G24    29.60F
HALLOCK        SUNNY     77  48  36 S24       29.43F
ROSEAU         SUNNY     79  54  41 S15       29.49F
WARROAD        SUNNY     75  55  50 SE18      29.52F
THIEF RVR FALL SUNNY     78  50  37 S24G33    29.50F
CROOKSTON      SUNNY     75  52  43 S25G37    29.47F
FOSSTON        SUNNY     77  45  31 S26G35    29.53F
DETROIT LAKES  SUNNY     72  50  46 S23G30    29.58F
MOORHEAD       SUNNY     73  52  46 S22G29    29.51F
PARK RAPIDS    SUNNY     73  52  47 S21G32    29.63F
MAHNOMEN       FAIR      75  51  42 S22G29    29.53F
$$
MNZ006-009>011-018-025>026-202000-
   North Central Minnesota

CITY           SKY/WX    TMP DP  RH WIND       PRES   REMARKS
BAUDETTE       SUNNY     78  51  38 S13       29.56F
FLAG ISLAND    SUNNY     61  48  63 SE8       29.52F
INTL FALLS     SUNNY     77  47  34 S10G18    29.61F
WASKISH        MOSUNNY   75  48  38 S18G24    29.58F
BIG FORK       SUNNY     75  48  38 S15G22    29.65F
LONGVILLE      SUNNY     73  50  43 S13       29.66F
GRAND RAPIDS   SUNNY     72  51  47 S18G25    29.70F
CRANE LAKE     SUNNY     73  46  38 S9G18     29.69F
ORR            SUNNY     75  43  31 SE13G21   29.65F
COOK           SUNNY     75  48  38 S12G20    29.69F
WALKER         FAIR      69  50  50 SE9       29.63F
$$
MNZ012-019>021-037-202000-
   Northeast Minnesota

CITY           SKY/WX    TMP DP  RH WIND       PRES   REMARKS
DULUTH         SUNNY     72  50  45 S16       29.77F
ELY            SUNNY     73  45  35 S10G20    29.72F
HIBBING        SUNNY     72  47  40 S10G23    29.72F
EVELETH        SUNNY     73  32  21 S17G25    29.74F
DULUTH HARBOR  SUNNY     59  55  88 N9        29.76F
TWO HARBORS    SUNNY     73  55  53 S8G17     29.76F
SILVER BAY     SUNNY     70  50  49 S8G17     29.77F
GRAND MARAIS     N/A     54  48  80 E3        29.81F
G MARAIS ARPRT SUNNY     64  45  48 S6G16     29.83F
$$
MNZ029>031-032-039>041-046>048-054>057-064-202000-
   West Central Minnesota

CITY           SKY/WX    TMP DP  RH WIND       PRES   REMARKS
FERGUS FALLS   SUNNY     72  54  53 S24G36    29.57F
WHEATON        SUNNY     72  50  46 SE21G28   29.57F
MORRIS         SUNNY     75  54  46 S23G30    29.60F
ALEXANDRIA     SUNNY     73  52  47 S24G32    29.66F
ELBOW LAKE     FAIR      71  54  54 S22G30    29.60F
WADENA         SUNNY     72  52  49 CALM      29.63F
GLENWOOD       SUNNY     73  54  49 S22G29    29.67F
APPLETON       SUNNY     75  52  43 S18G24    29.61F
BENSON         SUNNY     75  52  43 S23G33    29.65F
ORTONVILLE     MOSUNNY   75  54  46 N16G25    29.59F
MADISON        SUNNY     77  54  44 S18G29    29.61F
WILLMAR        FAIR      75  54  46 S18G29    29.70F
$$
MNZ033>034-036-042>043-049>051-058-059-202000-
   Central Minnesota

CITY           SKY/WX    TMP DP  RH WIND       PRES   REMARKS
ST CLOUD       SUNNY     73  52  47 S20G30    29.73F
SAUK CENTRE    FAIR      72  52  49 S18G26    29.69F
PAYNESVILLE    MOSUNNY   75  53  45 S18G28    29.71F
AITKIN         SUNNY     70  50  49 S16G22    29.70F
PINE RIVER     SUNNY     70  50  49 S14G24    29.70F
BRAINERD       SUNNY     71  51  49 S21G30    29.70F
STAPLES        SUNNY     73  48  40 S15G24    29.66F
LONG PRAIRIE   FAIR      72  52  49 SE22G28   29.68F
LITTLE FALLS   SUNNY     73  41  31 S16G26    29.70F
LITCHFIELD     SUNNY     75  54  46 S7G23     29.73F
BUFFALO        CLOUDY    76  50  40 SE14G20   29.76F
MAPLE LAKE     SUNNY     77  53  42 S13G23    29.75F
HUTCHINSON     SUNNY     76  55  47 S14G22    29.75F
$$
MNZ037-044-045-052-053-202000-
   East Central Minnesota

CITY           SKY/WX    TMP DP  RH WIND       PRES   REMARKS
PRINCETON      SUNNY     77  52  41 S16G22    29.75F
MORA           SUNNY     73  50  43 S16G22    29.77F
CAMBRIDGE      SUNNY     79  55  44 S21G29    29.76F
RUSH CITY      SUNNY     74  50  42 S18       29.78F
MOOSE LAKE     SUNNY     73  48  40 S12G22    29.74F
HINCKLEY       FAIR      73  54  49 S13G23    29.77F
CLOQUET        SUNNY     72  45  37 S16       29.76F
MCGREGOR       SUNNY     72  50  46 S16G22    29.73F
$$
MNZ071>073-080-081-089-090-097-098-202000-
   Southwest Minnesota

CITY           SKY/WX    TMP DP  RH WIND       PRES   REMARKS
MONTEVIDEO     SUNNY     77  54  44 S15G25    29.65F
GRANITE FALLS  SUNNY     78  55  46 SE21G29   29.68F
CANBY          MOSUNNY   74  53  47 S21G29    29.64F
MARSHALL       SUNNY     75  55  49 S30G38    29.65F
REDWOOD FALLS  SUNNY     77  51  40 S28G37    29.70F
OLIVIA         SUNNY     73  52  46 S22G29    29.69F
PIPESTONE      SUNNY     72  52  49 S25G31    29.69F
WORTHINGTON    SUNNY     75  54  47 S18G30    29.74F
JACKSON        SUNNY     73  52  46 S22G31    29.79F
TRACY          SUNNY     75  56  51 S17G31    29.70F
SLAYTON        SUNNY     74  54  48 S22G31    29.72F
$$
MNZ065>067-074>077-082>085-091>093-202000-
   South Central Minnesota

CITY           SKY/WX    TMP DP  RH WIND       PRES   REMARKS
MANKATO        SUNNY     76  51  41 S20G30    29.79F
NEW ULM        SUNNY     75  52  43 S21G31    29.75F
ST JAMES       SUNNY     75  52  43 S24G36    29.77F
GLENCOE        SUNNY     75  51  43 S13G28    29.76F
FARIBAULT      MOSUNNY   75  50  41 S16G26    29.82F
OWATONNA       MOSUNNY   73  52  46 S20G25    29.83F
WASECA         MOSUNNY   73  50  43 S20G26    29.83F
$$
MNZ078>079-086>088-094>096-202000-
   Southeast Minnesota

CITY           SKY/WX    TMP DP  RH WIND       PRES   REMARKS
ROCHESTER      SUNNY     72  49  44 S22G31    29.89F
RED WING       MOSUNNY   77  43  29 S10G18    29.83F
STANTON        SUNNY     76  46  34 S21G28    29.81F
DODGE CENTER   MOSUNNY   72  46  40 S22       29.87F
WINONA         SUNNY     77  46  33 S9        29.91F
AUSTIN         MOSUNNY   72  50  46 S15G21    29.87F
PRESTON        MOSUNNY   72  44  36 S20G26    29.92F
$$
ABBREVIATIONS USED IN REMARKS
   TC - TEMPERATURES IN CELSIUS
  WCI - WIND CHILL INDEX
   HX - HEAT INDEX
  VSB - VISIBILITY
$$




USA.gov is the U.S. government's official web portal to all federal, state and local government web resources and services.